SL-14 R/B (11267 NORAD) Tracking and Keplerian Element Data

This shows tracking and keplerian element data for the satellite.

Feedback or suggestion? Click here.




ElementValue
Catalog11267
NameSL-14 R/B
Epoch Orbit49057
Epoch Day35.16354044
Epoch Year2025
RAAN114.4715
Inclination82.5247
Eccentricity0.001495
Argument of Perigee311.9386
Mean Anonmoly48.0558
Mean Motion14.91188728
Decay Rate1.206E-05
L11 11267U 79011B 25035.16354044 .00001206 00000+0 11877-3 0 9992
L22 11267 82.5247 114.4715 0014950 311.9386 48.0558 14.91188728490574



Live tracking and technical data element details for SL-14 R/B (NORAD 11267). SL-14 R/B can be tracked NOW for your location showing map with azimuth and elevation plus other details from your city location.







IsCatalogInMostPopularTable: catalog: 11267, numindb: 365
Update: records affected: 1



GetName: 11267 SL-14 R/B

Hit Count: updated at: Fri, 16 May 2025 11:55:05 GMT